SCP
0 0 0 0 0 0 0 0 0 0 0 0 0 0 0 0 0 0 0 0 0 0 0 0 0 0 0 0 0 0 0 0 0 0 0 0 0 0
0 0 0 0 0 0 0 0 0 0 0 0 0 0 0 0 0 0 0 0 0 0 0 0 0 0 0 0 0 0 0 0 0 0 0 0 0 0
0 0 0 0 0 0 0 0 0 0 0 0 0 0 0 0 0 0 0 0 0 0 0 0 0 0 0 0 0 0 0 0 0 0 0 0 0 0
0 0 0 0 0 0 0 0 0 0 0 0 0 0 0 0 0 0 0 0 0 0 0 0 0 0 0 0 0 0 0 0 0 0 0 0 0 0
0 0 0 0 0 0 0 0 0 0 0 0 0 0 0 0 0 0 0 0 0 0 0 0 0 0 0 0 0 0 0 0 0 0 0 0 0 0
0 0 0 0 0 0 0 0 0 0 0 0 0 0 0 0 0 0 0 0 0 0 0 0 0 0 0 0 0 0 0 0 0 0 0 0 0 0
0 0 0 0 0 0 0 0 0 0 0 0 0 0 0 0 0 0 0 0 0 0 0 0 0 0 0 0 0 0 0 0 0 0 0 0 0 0
0 0 0 0 0 0 0 0 0 0 0 0 0 0 0 0 0 0 0 0 0 0 0 0 0 0 0 0 0 0 0 0 0 0 0 0 0 0
0 0 0 0 0 0 0 0 0 0 0 0 0 0 0 0 0 0 0 0 0 0 0 0 0 0 0 0 0 0 0 0 0 0 0 0 0 0
0 0 0 0 0 0 0 0 0 0 0 0 0 0 0 0 0 0 0 0 0 0 0 0 0 0 0 0 0 0 0 0 0 0 0 0 0 0
0 0 0 0 0 0 0 0 0 0 0 0 0 0 0 0 0 0 0 0 0 0 0 0 0 0 0 0 0 0 0 0 0 0 0 0 0 0
0 0 0 0 0 0 0 0 0 0 0 0 0 0 0 0 0 0 0 0 0 0 0 0 0 0 0 0 0 0 0 0 0 0 0 0 0 0
0 0 0 0 0 0 0 0 0 0 0 0 0 0 0 0 0 0 0 0 0 0 0 0 0 0 0 0 0 0 0 0 0 0 0 0 0 0
0 0 0 0 0 0 0 0 0 0 0 0 0 0 0 0 0 0 0 0 0 0 0 0 0 0 0 0 0 0 0 0 0 0 0 0 0 0
0 0 0 0 0 0 0 0 0 0 0 0 0 0 0 0 0 0 0 0 0 0 0 0 0 0 0 0 0 0 0 0 0 0 0 0 0 0
0 0 0 0 0 0 0 0 0 0 0 0 0 0 0 0 0 0 0 0 0 0 0 0 0 0 0 0 0 0 0 0 0 0 0 0 0 0
0 0 0 0 0 0 0 0 0 0 0 0 0 0 0 0 0 0 0 0 0 0 0 0 0 0 0 0 0 0 0 0 0 0 0 0 0 0
0 0 0 0 0 0 0 0 0 0 0 0 0 0 0 0 0 0 0 0 0 0 0 0 0 0 0 0 0 0 0 0 0 0 0 0 0 0
0 0 0 0 0 0 0 0 0 0 0 0 0 0 0 0 0 0 0 0 0 0 0 0 0 0 0 0 0 0 0 0 0 0 0 0 0 0
0 0 0 0 0 0 0 0 0 0 0 0 0 0 0 0 0 0 0 0 0 0 0 0 0 0 0 0 0 0 0 0 0 0 0 0 0 0
0 0 0 0 0 0 0 0 0 0 0 0 0 0 0 0 0 0 0 0 0 0 0 0 0 0 0 0 0 0 0 0 0 0 0 0 0 0
0 0 0 0 0 0 0 0 0 0 0 0 0 0 0 0 0 0 0 0 0 0 0 0 0 0 0 0 0 0 0 0 0 0 0 0 0 0
0 0 0 0 0 0 0 0 0 0 0 0 0 0 0 0 0 0 0 0 0 0 0 0 0 0 0 0 0 0 0 0 0 0 0 0 0 0
Wind_Speed
4 4 3 2 2 2 2 2 2 4 5 3 2 2 2 2 5 4 4 9 11 11 11 11 11 11 11 11 12 12 13 13 13 13 13 14 14 14
3 3 3 3 2 2 3 2 3 3 5 3 3 3 3 4 6 4 4 10 11 11 10 10 11 11 11 11 11 12 12 12 12 13 13 13 14 14
3 4 4 3 3 2 2 2 3 3 5 5 3 3 3 4 5 4 4 4 5 10 10 11 11 10 10 10 10 11 12 12 11 11 12 13 14 14
4 4 4 3 4 3 3 3 3 3 4 6 4 3 4 4 4 5 5 5 4 8 10 10 10 10 10 10 10 10 11 11 11 11 12 13 14 14
4 5 5 4 4 3 3 3 3 3 3 4 5 3 3 3 4 5 5 4 5 6 8 9 9 10 10 10 10 10 11 10 10 11 11 12 13 13
3 3 4 4 5 4 4 4 3 3 3 3 4 4 3 3 3 3 4 3 4 4 6 6 8 9 10 10 11 11 10 10 10 10 10 10 11 11
2 3 3 5 6 5 4 3 3 3 3 3 4 4 4 3 3 3 4 4 4 3 3 4 4 4 5 8 10 10 10 10 10 9 10 10 10 10
2 2 2 3 3 5 6 6 5 4 4 4 4 5 5 4 3 3 4 4 4 2 2 4 3 4 4 4 8 9 9 9 9 9 10 10 9 9
1 1 1 2 3 2 3 4 5 6 7 5 5 6 5 4 4 4 4 4 5 3 3 5 3 4 4 5 9 9 9 9 9 9 9 10 9 9
1 1 1 2 2 2 1 2 3 3 4 4 4 5 5 4 5 5 5 4 4 3 2 4 3 3 4 4 8 8 9 9 9 9 9 9 8 8
1 1 1 2 3 3 2 2 3 3 4 5 5 6 7 7 5 3 3 3 4 3 1 2 3 3 4 3 5 8 10 10 9 8 8 8 8 7
1 1 2 3 3 4 2 2 3 3 2 3 4 5 4 5 5 4 3 3 3 3 1 1 2 2 4 3 3 4 5 8 8 8 8 8 8 4
1 1 2 4 4 4 4 2 3 3 2 2 2 2 2 2 2 2 2 2 3 3 2 1 2 2 2 4 3 3 3 4 4 5 6 8 8 5
1 1 2 4 5 4 3 3 3 3 1 1 2 2 2 2 2 2 2 2 2 3 3 2 2 2 3 4 4 3 3 3 3 3 3 6 7 7
1 3 4 5 5 3 3 4 3 2 1 1 2 3 2 2 2 2 2 2 2 3 3 2 3 3 3 3 4 4 4 3 3 3 3 3 3 3
2 3 4 5 5 4 3 3 2 1 1 1 2 2 2 2 2 1 2 2 2 2 2 2 3 3 3 4 4 5 4 3 3 3 3 3 3 3
2 1 2 2 3 2 2 2 2 2 2 2 2 2 2 2 2 1 1 1 1 3 3 3 2 2 3 3 3 4 4 4 4 3 3 4 3 3
3 2 2 2 2 2 2 2 2 2 2 2 2 2 2 2 2 2 1 1 2 2 3 3 3 2 2 2 4 4 3 3 4 3 2 3 4 3
3 2 2 2 2 2 2 2 2 3 2 2 2 2 2 2 2 2 2 2 2 2 3 2 2 1 2 4 3 2 3 3 4 3 3 3 4 5
2 1 2 2 2 2 2 2 2 2 2 2 2 2 2 2 2 2 2 2 2 3 3 2 2 1 2 3 4 4 4 4 3 4 4 3 4 6
1 2 2 2 2 2 2 2 2 2 2 2 2 2 2 2 2 2 2 3 3 2 3 3 3 5 3 2 3 3 3 4 4 4 4 4 4 3
1 2 2 2 2 2 2 2 2 2 2 2 2 2 2 2 2 2 2 2 2 2 3 3 3 3 2 2 3 4 5 5 5 6 5 4 2 2
2 2 2 2 2 2 2 2 3 2 2 2 2 2 2 2 2 2 2 2 2 2 2 3 3 2 2 2 3 3 5 5 4 4 4 6 5 6
Wind_Direction
213 215 223 224 212 213 207 202 220 267 274 261 268 285 288 284 287 290 288 294 299 298 298 300 301 299 298 299 300 301 302 305 306 306 307 307 309 308
216 214 222 222 217 213 210 218 221 238 266 263 260 283 291 292 289 292 287 296 295 297 299 301 301 299 298 299 300 301 301 301 302 304 307 309 309 309
226 222 230 225 222 222 221 223 229 233 261 279 272 278 276 285 296 296 294 287 289 297 298 301 301 300 300 299 299 300 302 302 302 302 305 307 307 307
224 226 232 229 226 224 221 228 235 237 247 273 284 277 272 279 288 292 296 293 285 294 297 300 300 301 303 304 304 305 306 306 303 303 304 305 305 307
228 227 230 222 227 226 224 230 237 247 243 257 276 281 278 284 293 293 292 293 292 297 299 298 301 301 301 301 302 302 303 301 302 302 304 306 309 309
242 237 237 231 232 230 232 233 233 239 243 256 269 278 280 281 279 286 293 294 292 302 301 298 300 304 302 300 301 301 299 297 299 302 306 308 310 311
239 240 242 244 249 250 251 238 230 239 248 256 265 273 275 276 274 277 283 295 290 288 293 291 294 293 298 297 298 299 299 298 298 299 303 305 307 311
234 240 256 258 268 275 274 271 257 247 245 249 260 267 271 267 273 276 281 294 294 295 300 297 295 288 289 290 298 301 302 302 302 303 305 303 303 308
226 235 278 287 296 272 291 297 289 281 267 257 257 260 263 261 262 270 269 273 273 286 302 293 295 288 290 299 305 302 305 307 307 305 304 303 300 302
261 236 243 266 275 276 272 273 273 278 277 267 255 262 263 262 252 255 261 270 271 273 264 278 290 286 296 298 312 318 320 317 311 308 307 307 305 303
341 296 258 254 287 301 285 275 283 291 295 281 277 277 278 279 272 264 264 269 278 279 260 268 288 297 294 291 304 320 322 320 316 314 316 320 319 315
353 318 302 300 301 306 287 267 279 288 299 305 302 302 300 295 289 266 254 255 272 280 267 278 285 308 306 294 300 313 318 321 323 322 320 323 327 326
326 320 313 318 311 307 301 282 278 291 290 292 296 299 307 308 301 284 267 249 255 264 267 274 281 289 279 295 304 304 309 308 314 319 320 324 329 332
317 309 314 327 326 319 314 318 313 311 311 312 309 307 310 308 299 292 276 264 253 259 269 256 260 271 284 291 294 303 305 304 304 308 310 320 321 322
356 344 343 345 344 341 346 341 329 325 336 318 303 298 297 297 298 294 285 271 273 271 269 260 253 260 258 268 283 294 304 306 301 303 307 309 304 308
5 5 3 3 3 5 8 1 359 357 336 302 297 303 309 310 305 297 294 306 311 308 297 282 269 256 262 267 269 283 289 293 307 306 306 305 305 301
13 27 17 7 18 17 13 5 0 358 353 330 313 313 317 320 317 312 296 307 294 297 311 317 301 273 253 259 272 275 285 288 288 302 307 305 301 300
32 33 15 10 6 360 358 354 350 345 338 335 331 318 316 317 319 322 315 299 293 297 302 312 324 326 311 277 245 268 285 287 296 301 294 293 298 303
41 26 4 360 355 352 349 341 332 331 333 332 329 323 320 321 321 321 321 316 308 303 300 302 312 317 314 309 303 262 270 293 302 303 297 284 285 293
26 5 346 344 340 336 334 328 325 329 334 330 323 317 318 321 322 321 322 316 308 308 312 314 311 297 270 280 292 299 292 283 291 296 298 293 285 287
357 342 331 326 323 323 322 320 319 318 321 319 320 320 316 317 316 315 314 317 312 307 313 315 304 307 286 282 289 299 304 306 296 288 294 298 303 312
331 323 319 318 314 312 314 317 317 317 318 313 312 315 314 310 307 309 308 308 309 307 302 304 314 326 333 311 301 305 313 322 321 317 305 282 276 296
309 306 306 308 308 309 308 307 309 309 308 307 309 310 312 312 304 299 304 309 309 311 311 317 329 339 329 306 303 305 315 323 326 332 335 339 322 297